www.pogodaiklimat.ru

Погода и климат >> Архив погоды >> Мали >> Нара


ПОГОДА в Наре

  • Прогноз погоды в Наре
  • Монитор погоды в Наре

АРХИВ ПОГОДЫ в Наре

Время (UTC), дата Ветер
(напр.,м/с)
 
Видим.   Явления Облачность Т
(С)
Тd
(С)
f
(%)
Тe
(С)
Тes
(С)
Комфортность P
(гПа)
Po
(гПа)
Тmin
(С)
Tmax
(С)
R
(мм)
R24
(мм)
S
(см)
15 12.01 СВ 2 10 км 8/0
[Ac lent Ci sp]
+30.0 -4.2 11 +27 +33 жарко 1011.5 981.6
18 12.01 СВ 2 10 км 9/0
[Ac As Ci sp]
+28.8 -3.6 12 +26 +26 жарко 1012.1 982.0 +30.6
21 12.01 СВ 2 10 км 8/0
[Ac As Ci sp]
+24.5 -2.3 17 +23 +23 комфорт 1015.1 984.9
00 13.01 СВ 2 10 км 8/0
[Ac lent Ci sp]
+21.7 -1.9 20 +21 +21 комфорт 1015.5 985.2
03 13.01 СВ 3 10 км 6/0
[Ci sp]
+20.4 -2.7 21 +21 +21 комфорт 1014.1 984.3
06 13.01 СВ 1 10 км 8/0
[Ac lent Ci sp]
+18.0 -0.1 29 +19 +19 1014.6 984.4 +18.0
09 13.01 В 3 10 км 6/0
[Ac lent Ci sp]
+21.0 -9.0 12 +20 +23 1016.4 986.1
12 13.01 В 3 10 км 6/0
[Ci sp]
+28.0 -6.8 10 +25 +35 комфорт 1015.5 985.4
15 13.01 В 2 10 км 6/0
[Ci sp]
+32.1 -6.4 8 +28 +35 жарко 1013.0 983.1
18 13.01 штиль 0 10 км 8/0
[Ci sp]
+30.0 -4.2 11 +27 +27 жарко 1013.1 983.0 +33.0
21 13.01 штиль 0 10 км 6/0
[Ci sp]
+24.3 -2.8 16 +22 +22 комфорт 1015.9 985.6
00 14.01 С 1 10 км 6/0
[Ci sp]
+20.8 -2.2 21 +22 +22 комфорт 1016.4 986.2
03 14.01 С 2 10 км 5/0
[Ci sp]
+19.2 -5.6 18 +20 +20 1014.9 984.9
06 14.01 СВ 1 10 км 6/0
[Ac lent Ci sp]
+17.5 -4.9 21 +19 +19 1015.2 985.0 +17.5
09 14.01 СВ 2 10 км 3/0
[Ci sp]
+19.5 -5.8 18 +20 +24 1017.0 986.6
12 14.01 СВ 2 10 км 3/0
[Ci sp]
+28.0 -8.1 9 +25 +38 комфорт 1015.6 985.5
15 14.01 СВ 2 10 км 1/0
[Ci sp]
+32.5 -2.8 10 +29 +37 жарко 1011.8 982.0
18 14.01 штиль 0 10 км 6/0
[Ci sp]
+30.8 -0.4 13 +28 +28 жарко 1012.9 982.9 +33.0
21 14.01 СВ 2 10 км 8/0
[Ci sp]
+24.8 -2.4 16 +23 +23 комфорт 1014.7 984.4
00 15.01 штиль 0 10 км 6/0
[Ci sp]
+20.5 -0.9 24 +20 +20 1013.8 983.7
03 15.01 штиль 0 10 км 6/0
[Ci sp]
+20.5 -0.9 24 +20 +20 1013.8 983.7
06 15.01 штиль 0 10 км 6/0
[Ci sp]
+15.5 -1.1 32 +16 +16 1013.0 982.8 +15.0
09 15.01 СВ 1 10 км 1/0
[Ci sp]
+19.5 -3.9 20 +20 +26 1015.5 985.4
12 15.01 штиль 0 10 км 1/0
[Ci sp]
+30.5 -4.8 10 +27 +46 жарко 1014.9 984.9
15 15.01 штиль 0 10 км ясно +35.5 +0.2 11 +32 +44 жарко 1012.1 982.2
18 15.01 штиль 0 10 км ясно +33.7 +2.3 14 +31 +31 жарко 1012.4 982.4 +37.0
21 15.01 СВ 1 10 км 1/0
[Ci sp]
+25.0 +4.4 26 +24 +24 комфорт 1014.4 984.1
00 16.01 штиль 0 10 км ясно +20.0 +3.4 33 +20 +20 1014.4 984.4
03 16.01 В 1 10 км 1/0
[Ci sp]
+16.5 +3.8 43 +17 +17 1013.3 983.4
06 16.01 штиль 0 10 км 3/0
[Ci sp]
+14.5 +2.3 44 +14 +14 1013.5 983.4 +14.5
09 16.01 штиль 0 10 км 3/0
[Ac lent]
+20.2 +0.8 27 +20 +25 1014.3 984.0
12 16.01 штиль 0 10 км 5/0
[Ci sp]
+30.6 -1.9 12 +27 +45 жарко 1013.2 983.3
15 16.01 штиль 0 10 км 6/0
[Ci sp]
+35.9 -0.9 10 +32 +42 жарко 1009.7 980.0
18 16.01 штиль 0 10 км 6/0
[Ci sp]
+32.7 +4.1 17 +30 +30 жарко 1010.1 980.2 +36.5
21 16.01 штиль 0 10 км 5/0
[Ci sp]
+26.9 -2.1 15 +25 +25 комфорт 1012.5 982.4
00 17.01 штиль 0 10 км 6/0
[Ci sp]
+22.4 -0.4 22 +22 +22 комфорт 1012.3 982.5
03 17.01 штиль 0 10 км 6/0
[Ci sp]
+19.3 -1.4 25 +19 +19 1011.7 982.0
06 17.01 штиль 0 10 км 4/0
[Ci sp]
+17.0 -2.9 25 +17 +17 1012.2 982.2 +17.0
09 17.01 В 2 10 км 1/0
[Ci sp]
+21.0 -4.5 18 +21 +26 комфорт 1013.2 983.1
12 17.01 СВ 1 10 км 6/0
[Ci sp]
+29.5 -3.1 12 +26 +41 жарко 1012.0 982.1
15 17.01 штиль 0 10 км 6/0
[Ac lent Ci sp]
+34.2 -0.2 11 +31 +40 жарко 1008.8 979.1
18 17.01 штиль 0 10 км 4/0
[Ci sp]
+32.5 +0.5 13 +29 +29 жарко 1009.0 979.1 +35.0
21 17.01 штиль 0 10 км 8/0
[Ci sp]
+25.5 -0.3 18 +24 +24 комфорт 1011.8 981.7
00 18.01 штиль 0 10 км 8/0
[Ci sp]
+21.8 -0.9 22 +21 +21 комфорт 1012.8 982.9
03 18.01 штиль 0 10 км 6/0
[Ci sp]
+17.5 +2.4 36 +18 +18 1010.5 980.8
06 18.01 штиль 0 10 км 6/0
[Ci sp]
+15.5 -3.0 28 +16 +16 1011.1 981.1 +15.5
09 18.01 штиль 0 10 км 1/0
[Ci sp]
+18.6 -3.3 22 +19 +25 1014.5 984.2
12 18.01 СВ 2 10 км 1/0
[Ci sp]
+27.8 -7.5 9 +24 +38 комфорт 1014.2 984.2
15 18.01 штиль 0 10 км 8/0
[Ci sp]
+31.5 -4.9 9 +28 +38 жарко 1011.8 981.8
18 18.01 С 2 10 км 9/0
[Ci sp]
+29.0 -5.8 10 +26 +26 жарко 1013.1 982.8 +32.1
21 18.01 С 3 10 км 9/0
[Ci sp]
+23.0 -6.3 14 +21 +21 комфорт 1015.6 985.1
00 19.01 С 2 10 км 9/0
[Ci sp]
+29.8 -3.7 11 +26 +26 жарко 1016.4 986.2
03 19.01 С 1 10 км 6/0
[Ci sp]
+17.5 -3.9 23 +19 +19 1016.2 986.1
06 19.01 штиль 0 10 км 6/0
[Ci sp]
+15.0 -0.2 35 +15 +15 1016.9 986.6 +15.0
09 19.01 С 3 10 км 5/0
[Ci sp]
+17.5 0.0 31 +18 +21 1018.7 988.0
12 19.01 С 2 10 км 4/0
[Ci sp]
+24.0 -3.5 16 +22 +36 комфорт 1018.3 987.9

 

Местоположение метеостанции Нара (Мали): широта 15.17 долгота -7.28 высота над уровнем моря 265 м.

В архиве по умолчанию представлена погода в Наре за последнюю неделю. Архивные данные за месяц целиком и за предыдущие месяцы, начиная с января 2011 года, Вы можете получить, выбрав интересующий диапазон дат из раскрывающегося списка и нажав кнопку "Ввод!".


*Определитесь, кто Вы:
робот инопланетянин человек

Внимание! Время в таблицах - всемирное. Для получения местного времени необходимо прибавить поправку, которая равна 0 ч.

Смотрите также архив погоды в соседних городах и на ближайших метеорологических станциях:

Погода в Неме (Мавритания) (159 км)
Погода в Ниоро-Дю-Сахель (Мали) (222 км)
Погода в Сегу (Мали) (231 км)
Погода в Аюн-эль-Атрус (Мавритания) (301 км)
Погода в Бамако (Мали) (302 км)
Погода в Ките (Мали) (332 км)
Погода в Сане (Мали) (334 км)
Погода в Мопти (Мали) (349 км)
Погода в Йелимане (Мали) (352 км)
Погода в Кутиале (Мали) (367 км)

Пояснения к столбцам:

Ветер - указаны скорость ветра в м/с - средняя за 10 мин, порывы в срок и между сроками (в фигурных скобках) и направление, откуда дует ветер: С - северный, СВ - северо-восточный, В - восточный, ЮВ - юго-восточный, Ю - южный, ЮЗ - юго-западный, З - западный, СЗ - северо-западный.
Видимость - горизонтальная дальность видимости в метрах или километрах. При видимости от 1 до 10 км при отсутствии осадков обычно наблюдается дымка, при ухудшении видимости до 1 км и менее - туман. В сухую погоду видимость может ухудшаться дымом, пылью или мглою.
Явления - указаны атмосферные явления, наблюдавшиеся в срок или в последний час перед сроком; фигурными скобками обозначены явления, наблюдавшиеся между сроками (за 1-3 часа до срока); квадратными скобками обозначены град или гололедные отложения с указанием их диаметра в мм.
Облачность - указаны через наклонную черту общая и нижняя облачность в баллах и высота нижней границы облаков в метрах; квадратными скобками обозначены формы облаков: Ci - перистые, Cs - перисто-слоистые, Cc - перисто-кучевые, Ac - высококучевые, As - высокослоистые, Sc - слоисто-кучевые, Ns - слоисто-дождевые, Cu - кучевые, Cb - кучево-дождевые. Подробнее классификацию облаков см. в Атласе облаков (PDF).
T - Температура воздуха - температура, измеренная на высоте 2 м над землей.
Td - Температура точки росы - температура, при понижении до которой содержащийся в воздухе водяной пар достигнет насыщения.
f - Относительная влажность воздуха - влажноcть воздуха, измеренная на высоте 2 м над землей.
Te - Эффективная температура - температура, которую ощущает одетый по сезону человек в тени. Характеристика душности погоды. При расчете учитывается влияние влажности воздуха и скорости ветра на теплоощущения человека.
Tes - Эффективная температура на солнце - температура, которую ощущает человек, с поправкой на солнечный нагрев. Характеристика знойности погоды. Зависит от высоты солнца над горизонтом, облачности и скорости ветра. Ночью, в пасмурную погоду, а также при ветре 12 м/с и более поправка равна нулю.
P - Атмосферное давление - приведенное к уровню моря атмосферное давление.
Po - Атмосферное давление - измеренное на уровне метеостанции атмосферное давление.
Tmin - Минимальная температура - минимум температуры воздуха на высоте 2 м над землей.
Tmax - Максимальная температура - максимум температуры воздуха на высоте 2 м над землей.
R - Количество осадков - Количество выпавших осадков за период времени, мм. При наведении курсора мыши на число - период времени, за который выпало указанное количество осадков.
R24 - Количество осадков - Количество выпавших осадков за 24 часа, мм.
S - Снежный покров - Высота снежного покрова, см. При наведении курсора мыши на число - состояние снежного покрова и степень покрытия местности в баллах.